sat.trackr.live / text

‹ back to catalog

ONEWEB-0260

NORAD 48978 · 2021-060M

PAYLOAD ACTIVE UNKNOWN

§ Identity

Operator
Country
UK
Launch date
2021-07-01
Launch site
VOSTO
Launch vehicle
Mass (kg)
RCS (m²)

Purposes: comms

External: N2YO · Heavens-Above · Gunter

§ Orbital elements

Epoch: 2026-05-25T05:08:27.362976Z

Period
109.37 min
Inclination
87.9100°
Eccentricity
0.0002314
Mean motion
13.16594172 rev/d
Perigee alt
1,196.0 km
Apogee alt
1,199.5 km
Semi-major
7,575.9 km
B*
-5.3238e-4
RAAN
233.3461°
Arg perigee
93.1849°
Mean anomaly
266.9547°
Rev number
23,658

§ Raw data

ONEWEB-02601 48978U 21060M   26145.21420559 -.00000191  00000+0 -53238-3 0  99972 48978  87.9100 233.3461 0002314  93.1849 266.9547 13.16594172236581

JSON: /api/v1/satellites/48978 · /tle

For live sub-satellite position, see the globe view (requires WebGL).

§ Visibility from observer

Set your observer location to see the next 7 days of passes ≥ 10°. The values pass through the URL so the page stays shareable.

No JS? Fill the form by hand. The geolocation button needs JavaScript.